Location: Asheville, NC
(35.6000°N, 82.5500°W)
Time: 04:02:43
(UTC-04:00)

Iridium 28 - Pass Details

Date: 06 January 2018
Orbit: 771 x 775 km, 86.4° (Epoch: 16 July)

Event Time Altitude Azimuth Distance (km) Brightness Sun altitude
Rises 05:52:04 0° 145° (SE) 3,228 9.5 -21.5°
Reaches altitude 10° 05:54:54 10° 130° (SE) 2,306 8.9 -20.9°
Maximum altitude 05:58:42 21° 82° (E) 1,672 8.0 -20.1°
Drops below altitude 10° 06:02:31 10° 34° (NE) 2,319 8.2 -19.4°
Sets 06:05:21 0° 19° (NNE) 3,251 8.8 -18.8°
